Вернуться в каталог

DELTA 1 DEB

АктивенPO
NORAD 21365·DEBRIS·🇺🇸 United States

Запущен Jun 12, 1975 с Vandenberg Space Force Base

Loading…

Ближайшие Пролёты (ближайшие 24 часа)

TLE

СвежийSource: Space-Track

Эпоха: Sep 14, 2026, 10:18 UTC

1 21365U 75052CK  26257.42934183 -.00000542  00000-0 -15084-2 0  9995
2 21365  99.7211 313.7989 0230415 335.6040  36.1236 12.98519795672938

Отслеживайте DELTA 1 DEB в реальном времени с AllMySat

Download on the App Store